Regional Weather Roundup
Issued by NWS

Home | Current Version | Previous Version | Graphics & Text | Print | Product List | Glossary On
Versions: 1 2 3 4 5 6 7 8 9 10 11 12 13 14 15 16 17 18 19 20 21 22 23 24 25 26 27 28 29 30 31 32 33 34 35 36 37 38 39 40 41 42 43 44 45 46 47 48 49 50
528
ASUS44 KLIX 190701
RWRLA
LOUISIANA WEATHER ROUNDUP
NATIONAL WEATHER SERVICE NEW ORLEANS LA
100 AM CST FRI DEC 19 2014

NOTE: "FAIR" INDICATES FEW OR NO CLOUDS BELOW 12,000 FEET WITH NO
      SIGNIFICANT WEATHER AND/OR OBSTRUCTIONS TO VISIBILITY.
      SKY/WX - SKY CONDITION AND SIGNIFICANT WEATHER.
      TMP - AIR TEMPERATURE.    DP   - DEWPOINT TEMPERATURE.
      RH  - RELATIVE HUMIDITY.  PRES - PRESSURE.
      HX  - HEAT INDEX.         WCI  - WIND CHILL INDEX.

*  THESE STATIONS ARE NOT NWS OR FAA STATIONS AND ARE NOT UNDER
   NWS QUALITY CONTROL.

LAZ040-048-061>063-065-066-069-190800-
SOUTHEAST LOUISIANA

CITY           SKY/WX    TMP DP  RH WIND       PRES   REMARKS
N.O. AUDUBON     N/A     58  56  94 MISG        N/A
N.O. INTL ARPT CLOUDY    58  53  84 E7        30.11F
N.O. LAKEFRONT CLOUDY    60  53  77 E13       30.11F
N.O. DOWNTOWN* FAIR      57  50  77 NE7       30.11F
SLIDELL        CLOUDY    56  50  80 NE7       30.12F
BATON ROUGE    CLOUDY    55  53  93 NE7       30.10F
BOOTHVILLE     CLOUDY    60  58  92 E5        30.10F
BELLE CHASSE   CLOUDY    59  55  87 E8        30.10F
BOGALUSA*        N/A     54  50  88 E3        30.15F
GALLIANO*      NOT AVBL
NEW ROADS*     NOT AVBL
GONZALES*      NOT AVBL
HAMMOND*       NOT AVBL
HOUMA*         NOT AVBL
PORT FOURCHON* CLOUDY    63  61  94 NE9       30.12F

$$

LAZ041-044-053-054-190800-
SOUTHWEST LOUISIANA

CITY           SKY/WX    TMP DP  RH WIND       PRES   REMARKS
LAKE CHARLES   CLOUDY    56  53  90 E12       30.04F
LAFAYETTE      CLOUDY    57  55  93 NE5       30.07S FOG
PATTERSON      CLOUDY    57  57 100 E8        30.07F
SALT POINT       N/A     64  60  87 E5        30.05F
NEW IBERIA     CLOUDY    61  55  81 E8        30.07F
CHENAULT AIRPK NOT AVBL

$$

LAZ027-028-190800-
CENTRAL LOUISIANA

CITY           SKY/WX    TMP DP  RH WIND       PRES   REMARKS
FORT POLK      CLOUDY    51  51  97 NE6       30.07F FOG
ALEXANDRIA INT CLOUDY    51  50  96 NE9       30.09F FOG
ALEXANDRIA     CLOUDY    52  50  93 NE7       30.11F

$$

LAZ001-002-190800-
NORTHWEST LOUISIANA

CITY           SKY/WX    TMP DP  RH WIND       PRES   REMARKS
SHREVEPORT     CLOUDY    51  47  86 E9        30.14S
BARKSDALE AFB  NOT AVBL
DTN SHREVEPORT CLOUDY    50  46  86 NE5       30.15F

$$

LAZ014-016-190800-
NORTHEAST LOUISIANA

CITY           SKY/WX    TMP DP  RH WIND       PRES   REMARKS
MONROE         CLOUDY    48  47  96 NE9       30.17F
TALLULAH       CLOUDY    50  45  83 E3        30.17F

$$




USA.gov is the U.S. government's official web portal to all federal, state and local government web resources and services.